Waarnemingen

Advertentie
Mijn weer
Avignon, Frankrijk (7563): temperatuur & dauwpunt: 19.09.2017 06:00:00 - 25.09.2017 06:00:00 (CEST)Avignon, Frankrijk (7563): temperatuur 5cm: 19.09.2017 06:00:00 - 25.09.2017 06:00:00 (CEST)Avignon, Frankrijk (7563): windsnelheid & windstoten: 19.09.2017 06:00:00 - 25.09.2017 06:00:00 (CEST)Avignon, Frankrijk (7563): windrichting: 19.09.2017 06:00:00 - 25.09.2017 06:00:00 (CEST)Avignon, Frankrijk (7563): luchtdruk: 19.09.2017 06:00:00 - 25.09.2017 06:00:00 (CEST)Avignon, Frankrijk (7563): zicht: 19.09.2017 06:00:00 - 25.09.2017 06:00:00 (CEST)Avignon, Frankrijk (7563): neerslag: 19.09.2017 06:00:00 - 25.09.2017 06:00:00 (CEST)
Datum & Tijd tt [°C] td [°C] tt 5cm [°C] ff [km/u] ff [kn] fx [km/u] fx [kn] dd ppp [hPa] vv [km] rr [mm]
25.09.2017 06:00:00 10,6 8,7 7,1 3 2 8 4 O 1017,5 37 0,0
25.09.2017 05:00:00 11,0 8,9 8,0 2 1 5 3 NNO 1017,4 38 0,0
25.09.2017 04:00:00 12,2 9,8 8,4 2 1 12 6 WNW 1017,6 47 0,0
25.09.2017 03:00:00 11,4 8,4 8,7 5 3 9 5 ZZO 1017,9 48 0,0
25.09.2017 02:00:00 12,9 9,5 9,7 2 1 8 5 OZO 1017,9 49 0,0
25.09.2017 01:00:00 13,6 10,0 10,9 5 3 8 5 OZO 1017,9 47 0,0
25.09.2017 00:00:00 14,8 10,2 11,6 0 0 4 2 N 1017,9 47 0,0
24.09.2017 23:00:00 16,4 10,9 12,6 4 2 9 5 WZW 1017,9 47 0,0
24.09.2017 22:00:00 19,7 11,2 15,4 2 1 8 5 ZZW 1017,6 58 0,0
24.09.2017 21:00:00 22,0 9,5 19,8 7 4 20 11 W 1017,1 59 0,0
24.09.2017 20:00:00 23,9 9,5 21,9 9 5 22 12 WZW 1016,8 46 0,0
24.09.2017 19:00:00 26,6 9,4 27,3 16 8 30 16 N 1016,5 57 0,0
24.09.2017 18:00:00 28,1 9,9 31,7 18 10 29 16 NNO 1016,3 45 0,0
24.09.2017 17:00:00 29,1 9,8 35,0 16 8 26 14 NNW 1016,5 60 0,0
24.09.2017 16:00:00 29,1 9,8 35,4 18 10 30 16 NNW 1016,8 52 0,0
24.09.2017 15:00:00 28,2 10,4 35,7 16 9 29 16 NW 1017,1 59 0,0
24.09.2017 14:00:00 26,3 12,4 32,7 9 5 21 11 NNW 1017,8 31 0,0
24.09.2017 13:00:00 23,7 13,6 29,8 6 3 15 8 N 1018,6 19 0,0
24.09.2017 12:00:00 20,7 14,1 22,9 4 2 12 7 NW 1019,2 15 0,0
24.09.2017 11:00:00 18,6 13,5 19,9 5 3 10 5 W 1019,6 14 0,0
24.09.2017 10:00:00 16,0 13,5 17,4 2 1 7 4 Z 1019,8 12 0,0
24.09.2017 09:00:00 13,7 13,1 9,8 3 2 6 4 Z 1019,8 8 0,0
24.09.2017 08:00:00 10,7 10,1 8,4 2 1 4 2 ZZO 1019,6 2,2 0,0
24.09.2017 07:00:00 11,6 11,0 7,8 2 1 3 2 O 1019,4 2,8 0,0
24.09.2017 06:00:00 10,7 9,6 8,4 3 1 4 2 OZO 1019,5 0,6 0,0
24.09.2017 05:00:00 11,8 10,7 9,3 4 2 5 3 ONO 1019,6 8 0,0
24.09.2017 04:00:00 12,9 11,8 10,1 3 1 4 2 OZO 1019,7 10 0,0
24.09.2017 03:00:00 13,4 12,3 10,9 4 2 5 3 ZW 1020,0 13 0,0
24.09.2017 02:00:00 14,1 13,1 11,7 3 1 5 3 ZO 1020,3 11 0,0
24.09.2017 01:00:00 14,2 12,4 12,6 3 1 7 4 OZO 1020,6 17 0,0
24.09.2017 00:00:00 15,4 13,4 13,7 5 3 7 4 O 1020,7 28 0,0
23.09.2017 23:00:00 15,8 13,5 13,5 0 0 13 7 N 1020,7 30 0,0
23.09.2017 22:00:00 17,9 14,6 16,6 7 4 12 7 ZW 1020,5 39 0,0
23.09.2017 21:00:00 18,9 14,6 17,6 8 5 18 10 ZW 1020,3 50 0,0
23.09.2017 20:00:00 20,0 14,1 19,2 10 5 23 12 ZW 1019,5 38 0,0
23.09.2017 19:00:00 22,2 14,6 22,5 14 8 30 16 WZW 1019,1 43 0,0
23.09.2017 18:00:00 25,5 12,0 28,2 9 5 17 9 ZW 1018,7 36 0,0
23.09.2017 17:00:00 25,8 11,5 30,7 8 4 17 9 ZZW 1019,0 28 0,0
23.09.2017 16:00:00 25,6 9,8 32,1 8 4 16 9 ZZW 1019,5 33 0,0
23.09.2017 15:00:00 24,6 12,2 30,9 8 4 21 11 WZW 1020,3 17 0,0
23.09.2017 14:00:00 23,6 13,5 29,1 6 3 15 8 W 1020,9 15 0,0
23.09.2017 13:00:00 22,2 13,8 24,3 7 4 18 10 WNW 1021,3 12 0,0
23.09.2017 12:00:00 20,3 14,4 21,7 4 2 12 7 NNO 1022,1 13 0,0
23.09.2017 11:00:00 19,6 14,4 21,4 3 2 13 7 NO 1022,3 10 0,0
23.09.2017 10:00:00 17,2 15,0 17,4 5 3 8 4 N 1022,3 4,5 0,0
23.09.2017 09:00:00 16,2 15,6 16,5 2 1 6 3 N 1021,9 2,4 0,0
23.09.2017 08:00:00 16,2 15,6 16,4 2 1 5 3 NNO 1021,8 1,1 0,0
23.09.2017 07:00:00 16,1 15,3 16,3 0 0 7 4 N 1021,6 2,0 0,0
23.09.2017 06:00:00 16,3 15,7 16,2 4 2 8 4 O 1021,3 1,8 0,0
23.09.2017 05:00:00 16,1 15,5 16,1 3 2 5 3 ZZO 1021,5 0,8 0,0
23.09.2017 04:00:00 16,3 15,7 16,0 2 1 5 3 O 1021,8 0,2 0,0
23.09.2017 03:00:00 16,2 15,6 15,7 0 0 4 2 N 1022,3 0,1 0,0
23.09.2017 02:00:00 15,9 15,1 14,2 0 0 8 4 N 1022,5 0,3 0,0
23.09.2017 01:00:00 14,3 13,5 9,4 0 0 3 2 N 1022,3 6 0,0
23.09.2017 00:00:00 13,5 12,2 9,8 2 1 4 2 ONO 1022,1 4,2 0,0
22.09.2017 23:00:00 13,9 12,1 10,7 0 0 4 2 N 1022,0 9 0,0
22.09.2017 22:00:00 15,6 13,4 11,4 0 0 6 3 N 1021,3 12 0,0
22.09.2017 21:00:00 17,2 13,3 14,6 4 2 13 7 ZZO 1021,0 17 0,0
22.09.2017 20:00:00 20,2 14,8 18,8 10 5 18 10 ZZW 1020,4 29 0,0
22.09.2017 19:00:00 22,4 14,0 22,7 14 7 24 13 ZZW 1020,2 20 0,0
22.09.2017 18:00:00 24,3 12,3 26,7 13 7 20 11 ZW 1019,8 50 0,0
22.09.2017 17:00:00 24,9 11,8 28,0 12 7 21 11 WZW 1019,8 42 0,0
22.09.2017 16:00:00 25,2 11,4 30,3 9 5 20 11 WNW 1019,8 46 0,0
22.09.2017 15:00:00 24,9 10,7 30,6 5 3 17 9 WZW 1019,8 20 0,0
22.09.2017 14:00:00 24,1 12,4 29,3 6 3 16 9 Z 1020,4 17 0,0
22.09.2017 13:00:00 22,4 12,3 29,6 6 3 14 7 W 1020,8 16 0,0
22.09.2017 12:00:00 20,8 11,1 26,4 3 2 10 6 W 1021,2 53 0,0
22.09.2017 11:00:00 18,3 9,4 19,4 3 2 8 5 NNW 1021,4 20 0,0
22.09.2017 10:00:00 15,3 8,1 14,7 0 0 4 2 N 1021,4 60 0,0
22.09.2017 09:00:00 12,8 8,1 9,3 0 0 6 3 N 1021,1 60 0,0
22.09.2017 08:00:00 8,9 7,3 6,6 2 1 8 4 NNW 1020,9 36 0,0
22.09.2017 07:00:00 8,5 7,0 6,3 4 2 7 4 N 1020,3 39 0,0
22.09.2017 06:00:00 9,1 7,4 6,3 2 1 4 2 NNO 1020,1 51 0,0
22.09.2017 05:00:00 9,7 7,0 7,4 3 1 5 3 ZO 1020,1 60 0,0
22.09.2017 04:00:00 11,2 7,1 8,6 4 2 8 5 O 1020,0 60 0,0
22.09.2017 03:00:00 12,3 7,4 10,1 5 3 11 6 O 1020,5 60 0,0
22.09.2017 02:00:00 12,3 9,8 7,8 2 1 7 4 O 1020,7 49 0,0
22.09.2017 01:00:00 10,1 7,3 7,4 0 0 4 2 N 1020,5 40 0,0
22.09.2017 00:00:00 11,1 8,3 8,1 2 1 5 3 ZO 1020,2 43 0,0
21.09.2017 23:00:00 11,7 8,2 8,6 0 0 3 1 N 1020,1 56 0,0
21.09.2017 22:00:00 13,4 8,2 9,5 0 0 5 3 N 1019,9 60 0,0
21.09.2017 21:00:00 15,3 8,1 11,5 5 3 13 7 ZZO 1019,4 60 0,0
21.09.2017 20:00:00 16,8 7,7 14,5 10 5 16 8 Z 1018,7 60 0,0
21.09.2017 19:00:00 21,2 6,3 23,4 12 7 20 11 Z 1018,0 60 0,0
21.09.2017 18:00:00 23,3 6,1 27,7 15 8 29 15 Z 1017,5 60 0,0
21.09.2017 17:00:00 24,5 4,8 30,5 16 9 27 15 ZZW 1017,6 60 0,0
21.09.2017 16:00:00 25,1 6,8 31,6 16 9 27 15 Z 1017,5 60 0,0
21.09.2017 15:00:00 25,0 5,2 30,7 11 6 24 13 ZZW 1017,6 20 0,0
21.09.2017 14:00:00 24,2 5,5 30,3 12 6 22 12 ZZW 1018,1 19 0,0
21.09.2017 13:00:00 22,5 5,4 27,6 4 2 12 7 W 1018,5 60 0,0
21.09.2017 12:00:00 19,6 6,3 24,6 4 2 12 7 N 1019,2 60 0,0
21.09.2017 11:00:00 16,4 6,2 23,0 6 3 11 6 NW 1019,6 55 0,0
21.09.2017 10:00:00 15,1 6,4 17,4 4 2 8 4 WNW 1019,5 20 0,0
21.09.2017 09:00:00 12,5 7,2 9,2 0 0 5 3 N 1019,4 60 0,0
21.09.2017 08:00:00 6,4 4,7 2,7 0 0 6 3 N 1019,3 24 0,0
21.09.2017 07:00:00 6,6 4,8 2,7 5 3 11 6 O 1018,9 60 0,0
21.09.2017 06:00:00 6,9 5,2 3,4 3 2 6 4 ZZO 1018,7 60 0,0
21.09.2017 05:00:00 7,5 4,4 4,6 2 1 9 5 ZO 1018,7 60 0,0
21.09.2017 04:00:00 9,3 4,3 6,8 3 2 16 9 Z 1018,8 60 0,0
21.09.2017 03:00:00 12,5 6,3 8,8 4 2 12 6 N 1018,7 60 0,0
21.09.2017 02:00:00 14,0 6,8 11,6 9 5 20 11 N 1018,9 60 0,0
21.09.2017 01:00:00 14,5 6,6 12,0 14 8 24 13 NNW 1018,5 60 0,0
21.09.2017 00:00:00 16,1 6,5 14,0 13 7 33 18 NNW 1018,5 60 0,0
20.09.2017 23:00:00 16,1 6,2 14,7 17 9 37 20 NNW 1018,3 60 0,0
20.09.2017 22:00:00 17,0 5,9 15,6 23 12 35 19 N 1018,2 60 0,0
20.09.2017 21:00:00 17,3 5,2 15,7 18 10 42 23 NNW 1018,4 60 0,0
20.09.2017 20:00:00 18,3 4,8 17,4 30 16 53 28 NNW 1017,9 60 0,0
20.09.2017 19:00:00 19,7 5,0 20,9 36 19 54 29 N 1017,1 45 0,0
20.09.2017 18:00:00 21,2 5,1 24,6 30 16 54 29 N 1017,0 20 0,0
20.09.2017 17:00:00 21,6 5,1 26,4 35 19 57 31 N 1017,2 16 0,0
20.09.2017 16:00:00 22,9 5,8 27,6 33 18 55 30 N 1016,9 17 0,0
20.09.2017 15:00:00 21,6 5,1 27,0 34 19 56 30 N 1017,8 20 0,0
20.09.2017 14:00:00 21,1 5,8 26,5 39 21 56 30 N 1017,9 23 0,0
20.09.2017 13:00:00 20,6 6,2 24,7 31 17 52 28 N 1018,5 26 0,0
20.09.2017 12:00:00 18,9 6,4 22,2 34 19 58 31 N 1018,9 29 0,0
20.09.2017 11:00:00 17,7 6,5 19,3 40 22 63 34 N 1018,6 31 0,0
20.09.2017 10:00:00 15,8 6,8 16,4 36 20 62 33 N 1019,1 36 0,0
20.09.2017 09:00:00 14,2 7,0 13,6 30 16 56 31 N 1019,1 39 0,0
20.09.2017 08:00:00 12,9 6,9 11,9 30 16 60 32 N 1019,2 49 0,0
20.09.2017 07:00:00 12,8 6,8 11,8 34 19 57 31 N 1018,9 60 0,0
20.09.2017 06:00:00 13,2 6,8 11,8 27 15 53 29 N 1019,4 60 0,0
20.09.2017 05:00:00 13,2 6,8 11,7 26 14 56 30 NNW 1019,8 60 0,0
20.09.2017 04:00:00 13,0 6,6 11,9 26 14 47 26 NNW 1019,8 60 0,0
20.09.2017 03:00:00 13,1 6,9 12,0 22 12 42 23 NNW 1020,2 60 0,0
20.09.2017 02:00:00 13,1 7,3 12,0 28 15 53 28 N 1019,9 60 0,0
20.09.2017 01:00:00 13,1 7,5 12,3 23 13 53 29 NNW 1020,2 60 0,0
20.09.2017 00:00:00 13,3 6,9 12,3 23 13 48 26 NNW 1020,2 60 0,0
19.09.2017 23:00:00 13,8 6,6 12,8 27 15 43 23 NNW 1020,6 60 0,0
19.09.2017 22:00:00 14,4 6,5 13,2 22 12 40 22 NNW 1020,7 60 0,0
19.09.2017 21:00:00 14,7 6,3 13,7 24 13 45 25 N 1020,2 60 0,0
19.09.2017 20:00:00 15,5 6,0 14,7 25 14 52 28 N 1019,5 60 0,0
19.09.2017 19:00:00 17,3 4,9 19,1 24 13 59 32 N 1018,4 37 0,0
19.09.2017 18:00:00 18,1 5,0 18,7 35 19 56 30 N 1018,1 28 0,0
19.09.2017 17:00:00 19,7 5,7 22,4 32 17 59 32 N 1017,6 21 0,0
19.09.2017 16:00:00 20,1 3,7 23,4 36 19 61 33 N 1017,6 23 0,0
19.09.2017 15:00:00 19,4 4,7 21,2 37 20 59 32 NNW 1017,7 33 0,0
19.09.2017 14:00:00 20,5 6,8 18,2 29 16 62 33 NNW 1018,1 43 0,0
19.09.2017 13:00:00 18,2 5,4 20,6 29 16 55 30 N 1018,1 41 0,0
19.09.2017 12:00:00 18,8 6,3 19,8 30 16 49 26 N 1018,5 54 0,0
19.09.2017 11:00:00 17,1 6,6 17,0 26 14 39 21 NW 1018,7 60 0,0
19.09.2017 10:00:00 14,8 6,6 14,3 21 12 31 17 NW 1018,8 52 0,0
19.09.2017 09:00:00 13,4 6,3 13,2 17 9 30 16 NW 1018,9 60 0,0
19.09.2017 08:00:00 12,6 6,0 10,9 16 9 27 15 NW 1018,5 60 0,0
19.09.2017 07:00:00 11,9 6,0 10,2 16 9 25 14 NNW 1018,1 60 0,0
19.09.2017 06:00:00 12,1 6,2 11,0 18 10 34 19 NNW 1017,8 60 0,0

tt = temperatuur
td = dauwpunt
tt 5cm = temperatuur 5cm
ff = windsnelheid
fx = windstoten
dd = windrichting
ppp = luchtdruk
vv = zicht
rr = neerslag

Weerstations in de omgeving